Tracking 33199 objects as of 16-Feb-2026
HD Live streaming from Space Station
objects crossing your sky now

STARLINK-30480

Track STARLINK-30480 now!
10-day predictions
STARLINK-30480 is classified as:


NORAD ID: 58069
Int'l Code: 2023-158U
Perigee: 488.6 km
Apogee: 491.8 km
Inclination: 43.0 °
Period: 94.3 minutes
Semi major axis: 6861 km
RCS: Unknown
Launch date: October 13, 2023
Source: United States (US)
Launch site: AIR FORCE EASTERN TEST RANGE (AFETR)
Your satellite tracking list
Your tracking list is empty




NASA's NSSDC Master Catalog

Two Line Element Set (TLE):
1 58069U 23158U   26047.25911675 -.00000980  00000-0 -26075-4 0  9995
2 58069  43.0077   5.8592 0002336 285.0012  75.0581 15.27584096131965
Source of the keplerian elements: AFSPC